Theta_e
303 296 291 294 299 298 298 296 296 301 306 304 302 302 305 310 312 313 316 316 317 319 323 327 327 327 326 325 325 327 329 330 331 331 330 327 323 318 316 315 315 313 312 312
296 292 297 298 299 299 298 297 296 300 304 302 302 301 305 310 310 313 314 316 317 319 322 326 326 328 328 327 328 328 330 331 331 331 331 328 322 316 310 308 306 307 306 306
293 296 301 299 296 294 293 293 297 297 301 302 299 299 302 306 310 313 315 316 317 319 321 323 323 325 326 326 326 325 324 326 328 328 322 318 316 311 307 303 301 302 302 303
294 298 298 296 295 296 287 298 297 296 296 290 300 290 299 303 304 309 313 315 316 318 322 323 322 321 317 312 313 313 315 317 321 322 316 313 311 306 303 301 300 299 299 299
291 292 295 295 297 300 295 299 297 295 294 293 294 292 296 302 301 304 309 315 317 319 320 320 319 312 309 308 308 308 309 311 313 316 316 309 305 303 301 299 297 296 296 297
292 297 296 297 301 301 302 298 296 295 292 284 291 292 293 298 301 303 307 313 317 317 318 316 309 308 305 305 304 303 303 303 304 305 305 304 303 301 300 298 295 294 295 294
291 292 296 298 296 300 299 293 284 283 282 284 293 291 293 301 303 304 306 312 315 315 310 306 305 304 303 302 302 300 298 297 298 296 300 300 299 297 297 296 296 295 294 292
283 283 293 298 297 294 296 293 286 281 282 284 291 286 293 302 301 301 306 312 312 309 308 306 304 301 300 299 298 296 294 293 294 294 294 295 295 294 294 294 294 293 292 291
284 285 296 297 299 298 294 291 294 286 285 284 288 292 298 300 299 301 304 305 305 304 305 302 301 300 297 295 295 294 292 292 292 292 292 292 292 292 291 291 291 291 291 291
289 282 293 296 298 299 296 297 288 288 280 280 286 287 291 295 296 298 300 301 301 300 299 298 297 297 296 295 294 294 293 291 291 291 291 290 290 291 291 291 289 289 289 289
292 287 287 294 289 289 292 291 293 292 288 283 281 285 289 297 299 297 298 301 299 297 296 295 295 295 295 295 294 293 292 291 291 291 291 291 290 290 289 288 288 288 287 287
291 289 280 286 291 293 293 292 294 286 283 284 284 286 293 294 300 298 299 299 298 297 296 295 294 294 294 294 294 294 293 292 292 292 290 288 288 287 287 285 285 286 284 285
290 284 276 283 288 292 288 292 295 292 289 282 284 285 293 298 298 299 297 297 297 296 296 295 296 295 296 295 294 293 292 291 290 288 287 286 286 285 284 284 284 285 284 284
293 287 282 281 285 288 287 289 293 292 285 284 285 286 288 296 295 296 296 296 296 297 297 297 297 297 296 295 294 292 290 289 288 287 286 285 285 285 284 284 283 283 283 282
290 282 285 286 287 288 290 290 291 290 291 286 289 286 289 294 296 296 297 297 296 297 298 298 298 298 297 295 293 290 289 288 288 287 286 285 284 284 283 282 282 282 282 281
290 282 287 283 287 288 286 290 291 291 291 291 289 287 292 294 299 296 296 297 296 298 299 299 299 298 295 294 291 290 288 288 287 286 285 284 283 282 282 281 281 280 280 279
286 285 284 280 284 285 279 285 290 291 292 292 288 288 292 290 294 296 296 297 298 300 301 300 300 297 295 293 292 289 288 287 285 284 283 282 281 281 280 280 279 279 278 278
282 284 284 280 282 274 283 287 294 293 294 294 290 291 293 292 292 294 298 298 301 302 302 301 299 295 292 292 290 287 285 284 283 282 281 281 280 279 279 278 278 277 277 277
286 284 281 275 274 282 280 284 290 290 290 294 293 291 291 292 291 290 293 295 299 301 301 301 298 295 292 289 288 284 283 282 282 281 280 280 279 279 278 277 276 276 276 276
286 289 281 280 273 272 281 286 292 294 284 288 294 291 290 290 287 288 290 291 292 293 293 294 292 289 288 286 285 283 282 282 281 281 280 279 279 278 277 277 276 276 276 277
283 283 282 280 274 280 281 285 289 280 283 286 290 292 290 289 289 288 289 288 287 287 287 287 287 286 285 284 283 282 281 281 281 280 278 277 277 276 277 276 275 275 274 275
279 277 276 273 273 275 282 286 285 285 285 286 290 291 288 287 288 287 286 285 284 284 284 284 284 283 283 283 283 282 281 280 278 276 275 274 273 275 275 271 272 272 271 270
278 281 279 279 278 280 281 282 284 286 286 286 288 289 289 287 286 286 286 285 284 283 283 283 283 282 281 279 280 279 279 277 274 273 272 270 271 273 273 271 271 269 269 269
281 283 279 278 278 279 282 284 284 285 286 286 287 287 288 286 286 285 285 284 283 283 282 282 279 277 277 277 279 279 277 274 272 271 270 270 270 270 270 273 273 271 270 270
281 281 279 278 279 280 282 283 283 284 284 283 284 285 286 285 285 285 284 284 283 283 280 277 277 277 277 276 275 273 273 272 271 271 271 271 271 270 271 271 272 273 273 273
280 278 278 277 280 281 282 283 284 283 283 284 284 283 283 284 283 283 282 282 282 279 277 275 274 274 274 274 275 274 273 272 271 271 271 271 271 270 271 270 270 277 277 278
Wind_Speed
6 5 8 13 14 7 5 14 9 14 8 17 17 12 8 9 7 9 15 14 12 13 12 12 13 10 9 8 9 9 8 8 5 4 4 5 5 5 5 6 8 9 8 8
6 11 13 8 15 9 11 12 19 9 8 2 12 12 10 9 11 9 9 14 14 14 14 12 13 10 10 7 8 8 8 8 5 5 4 5 7 6 6 5 7 8 9 9
6 0 8 12 14 1 7 4 6 4 7 3 6 13 17 7 7 9 6 3 10 14 15 12 10 8 7 7 7 7 7 6 5 9 10 9 9 6 5 5 5 7 9 8
3 7 5 13 13 8 2 1 3 3 14 10 7 7 14 14 8 9 12 7 8 10 11 11 10 7 10 8 9 9 8 7 6 8 8 9 6 6 5 6 6 6 7 8
3 7 2 6 6 12 5 8 6 3 2 3 4 3 11 15 14 13 11 15 12 14 10 15 10 12 9 8 7 7 8 7 6 6 7 8 10 7 5 5 7 7 7 7
2 2 4 4 2 13 11 6 5 4 1 3 6 2 6 12 16 14 13 14 15 17 15 14 14 13 8 7 7 8 9 9 11 11 11 11 12 9 7 5 5 5 4 5
1 5 2 2 1 2 5 3 3 2 2 1 1 8 7 4 8 3 16 13 12 14 16 15 14 11 9 9 9 10 12 12 12 13 13 12 11 10 9 6 5 5 5 4
4 1 6 4 3 3 9 9 2 1 3 3 3 4 4 5 5 7 5 17 15 15 13 13 12 12 11 11 11 12 11 12 12 12 12 10 10 7 7 7 6 5 4 4
2 2 2 3 4 6 5 4 3 6 1 4 3 5 6 7 5 5 11 15 13 13 12 13 13 11 11 10 10 12 12 12 11 11 10 11 9 9 7 8 6 4 4 6
2 1 4 2 4 1 1 7 4 3 5 3 4 3 3 7 9 9 9 12 12 12 12 12 12 11 9 10 10 11 11 12 11 11 9 9 7 7 6 6 7 6 5 5
5 1 1 2 2 2 3 4 3 0 1 1 4 3 3 6 12 13 9 11 13 13 13 11 10 9 9 9 9 9 10 11 10 9 8 7 8 7 7 5 5 4 4 4
2 3 1 2 2 3 1 3 4 3 4 0 3 1 4 6 11 13 11 14 14 13 13 11 9 9 9 9 8 7 7 8 8 7 7 7 8 7 6 5 5 4 4 4
8 2 2 2 2 1 2 2 2 2 3 1 4 3 4 5 8 12 14 13 13 13 14 12 10 9 8 7 6 6 6 7 8 7 7 7 6 6 5 5 5 5 5 5
3 4 1 3 2 3 2 4 3 4 1 5 4 2 2 5 7 11 12 11 12 13 12 12 11 9 7 7 8 7 7 7 7 7 7 6 5 5 5 5 5 5 5 5
2 2 2 1 2 3 3 7 10 4 3 3 3 3 5 5 8 9 11 12 12 12 11 9 9 10 9 9 8 8 7 7 6 7 6 6 5 5 5 5 5 5 4 4
4 4 3 1 3 2 4 7 9 9 1 3 1 4 5 5 9 10 13 15 15 14 12 11 11 11 10 9 8 8 7 6 7 7 6 6 6 6 5 4 4 4 4 4
3 1 2 2 3 4 4 6 8 3 2 3 3 1 4 2 4 10 12 14 14 13 13 13 12 10 9 9 9 8 8 8 7 7 7 6 6 5 5 5 5 5 5 4
7 4 1 2 1 1 4 2 4 5 5 4 5 3 4 3 4 6 3 9 10 11 10 9 8 7 7 7 7 7 8 7 7 7 7 6 6 5 5 5 5 4 3 4
11 4 3 4 2 5 4 4 5 5 3 5 5 4 4 5 3 3 4 3 6 7 7 7 9 8 7 8 9 9 7 7 7 7 7 6 6 6 6 6 6 5 4 4
10 3 2 3 4 5 2 1 1 2 2 6 4 7 6 5 2 3 3 4 7 8 5 6 7 6 8 7 9 9 7 7 9 7 7 6 6 6 7 6 6 4 3 4
6 3 2 2 1 4 3 2 5 5 3 4 1 5 6 4 0 4 5 5 4 5 6 5 7 7 6 7 7 7 7 9 5 6 6 6 6 5 6 5 3 3 4 4
5 5 3 1 2 4 4 3 1 1 2 3 3 6 6 6 6 6 6 6 6 6 4 4 5 5 5 6 6 6 7 5 6 6 6 6 4 3 3 5 3 3 3 4
1 2 3 3 4 1 3 3 1 1 2 4 4 5 9 8 5 5 5 6 6 6 5 3 5 5 3 3 5 6 6 6 6 5 4 3 3 4 5 5 5 3 4 4
4 2 1 2 3 2 4 5 4 4 5 5 6 4 6 8 7 6 6 5 4 3 3 2 3 3 4 4 4 5 5 4 5 5 5 5 6 6 5 4 5 5 6 6
2 4 5 2 2 2 4 5 3 7 8 9 8 7 8 8 6 5 4 3 3 2 2 2 4 4 4 2 3 2 4 6 6 5 5 6 6 7 6 7 7 7 6 7
4 2 1 3 1 2 2 3 4 7 6 7 7 7 6 6 7 5 5 3 2 3 1 1 3 3 5 5 7 7 7 8 7 6 6 6 6 6 6 6 6 16 15 15
Wind_Direction
169 166 202 229 243 229 244 198 206 176 193 191 189 222 180 166 172 203 165 158 179 188 191 206 156 139 145 148 151 151 157 159 144 138 134 112 101 84 69 52 54 50 33 38
190 215 205 207 290 232 260 202 205 203 124 357 198 203 235 164 182 185 158 157 171 176 195 181 151 145 145 144 145 147 155 144 147 154 150 112 117 96 91 70 59 57 48 35
243 318 141 180 233 4 349 349 161 184 185 284 310 217 201 207 182 157 136 229 164 172 176 155 131 125 128 126 112 93 88 99 93 97 97 95 97 97 92 68 54 48 50 46
266 327 185 205 223 162 274 169 359 345 162 200 222 212 207 196 188 160 173 186 181 157 140 128 122 112 91 71 69 74 75 75 87 98 104 121 124 108 94 96 86 65 55 52
91 18 316 195 242 168 143 156 190 21 183 118 202 219 207 184 205 177 173 175 173 150 161 129 127 101 89 81 86 85 80 73 60 100 111 101 101 102 99 93 98 86 61 46
52 85 298 319 271 180 135 137 93 77 100 186 186 225 258 185 194 176 180 178 174 149 142 119 103 99 96 94 85 85 81 60 52 63 78 95 104 108 108 102 94 84 72 51
115 209 218 278 243 148 120 113 108 150 161 136 284 186 263 15 356 173 173 165 140 129 117 112 114 118 113 101 91 88 75 67 62 63 67 75 82 84 87 87 94 93 79 67
161 257 178 182 270 165 184 170 113 6 157 107 358 200 255 86 44 2 55 112 116 114 119 127 123 117 111 96 89 90 88 83 78 75 69 69 73 77 70 59 56 59 75 67
62 226 109 17 24 337 158 185 312 100 278 106 201 252 281 145 103 72 93 104 108 114 124 116 115 109 103 103 103 108 106 94 84 82 79 70 67 73 82 82 78 73 56 69
48 292 13 105 10 15 240 132 86 334 147 185 177 262 227 158 155 147 128 123 114 104 107 108 108 114 113 114 109 108 107 105 106 97 96 95 80 81 82 77 69 61 62 63
138 198 33 154 101 316 90 133 122 23 356 163 145 219 330 193 168 155 148 135 123 122 121 120 118 125 126 116 118 118 115 112 101 97 97 111 115 95 80 85 80 76 78 85
318 14 54 72 186 308 287 331 160 172 219 109 126 25 349 315 138 141 143 134 133 134 130 128 128 128 129 128 133 124 121 119 124 135 129 114 100 90 98 105 101 121 125 87
346 247 339 120 117 54 224 231 287 41 34 133 77 296 350 57 98 129 132 138 134 136 134 136 136 145 151 137 126 127 126 135 130 129 112 102 105 116 134 135 149 128 105 94
42 309 53 30 52 339 186 200 301 156 109 159 213 185 170 122 127 128 130 130 134 143 155 160 159 155 144 139 143 153 148 136 132 120 112 119 134 139 140 146 133 116 111 111
297 265 284 129 49 19 299 198 191 247 205 112 13 83 162 177 147 136 133 135 145 154 162 167 159 151 154 161 160 156 136 132 124 118 123 139 146 144 143 140 135 116 115 117
199 293 152 79 306 43 322 311 192 201 221 95 306 102 19 137 126 143 164 163 168 172 171 168 167 164 168 168 163 154 148 137 134 139 147 143 159 151 151 153 142 143 151 153
293 164 280 135 313 15 296 230 202 156 243 119 148 80 114 65 164 169 174 177 172 174 173 174 176 175 174 171 161 160 143 137 147 151 151 160 166 162 169 161 174 178 179 168
307 133 232 127 167 46 268 325 214 178 210 146 118 120 108 135 61 49 135 169 171 174 179 176 170 167 162 146 139 128 131 144 152 164 164 169 168 169 169 176 195 189 180 185
210 264 143 155 193 263 168 196 174 161 232 207 145 105 94 91 74 350 16 53 166 171 170 165 164 162 148 154 144 139 149 152 164 182 175 171 173 175 179 191 196 192 182 187
185 169 124 165 130 187 291 318 33 263 43 348 178 155 145 139 142 235 136 51 50 54 58 121 126 121 135 145 145 149 163 167 194 181 171 170 176 183 192 196 191 177 182 192
115 115 197 287 244 300 21 304 331 106 205 305 15 146 139 170 338 103 86 57 53 49 72 84 99 132 146 141 140 166 172 199 164 153 159 169 183 186 192 185 163 152 188 182
138 131 181 18 54 264 358 49 153 265 276 287 60 87 95 105 89 81 77 79 81 88 83 96 113 122 136 149 160 176 190 166 150 157 166 175 163 163 143 149 161 181 173 176
111 126 168 161 219 309 352 86 30 283 342 6 51 69 115 113 94 94 93 80 75 82 84 76 127 134 145 159 161 171 200 161 161 155 161 149 150 180 176 178 191 188 190 196
320 65 247 104 343 81 24 73 24 33 84 70 79 82 77 103 107 106 106 110 109 110 113 112 119 157 196 197 197 207 166 139 150 173 179 178 185 198 201 199 197 197 200 205
201 178 189 122 99 141 64 66 99 68 72 74 58 65 93 104 94 110 103 93 97 128 152 159 191 210 241 215 243 220 168 159 188 194 191 198 200 201 204 214 209 214 218 202
344 346 70 156 43 94 68 103 81 80 73 67 93 74 59 76 85 89 78 58 40 15 354 280 241 236 241 224 226 220 196 183 184 204 206 204 199 201 211 210 234 239 230 234